Date,TemperatureHighF,TemperatureAvgF,TemperatureLowF,DewpointHighF,DewpointAvgF,DewpointLowF,HumidityHigh,HumidityAvg,HumidityLow,PressureMaxIn,PressureMinIn,WindSpeedMaxMPH,WindSpeedAvgMPH,GustSpeedMaxMPH,PrecipitationSumIn
2013-1-1,52,43,33,26,16,1,50,34,24,30.15,30.00,10,3,23,0.08
2013-1-2,41,36,33,31,18,8,77,51,29,30.18,30.00,10,3,16,0.04
2013-1-3,40,32,27,26,10,-5,67,40,21,30.24,30.15,8,1,9,0.00
2013-1-4,41,29,23,4,-2,-6,33,26,21,30.33,30.24,14,2,15,0.00
2013-1-5,47,33,23,7,1,-6,33,25,19,30.39,30.24,4,0,6,0.00
2013-1-6,48,36,30,21,8,3,56,33,19,30.24,30.12,17,4,17,0.00
2013-1-7,44,33,24,6,2,-6,36,27,20,30.42,30.21,12,2,16,0.00
2013-1-8,49,34,21,22,6,0,53,33,19,30.45,30.39,5,0,6,0.00
2013-1-9,57,47,34,48,32,23,82,56,36,30.50,30.42,5,0,8,0.00
2013-1-10,58,49,43,51,26,7,87,46,19,30.56,30.45,6,1,10,0.00
2013-1-11,53,45,40,50,38,7,91,80,19,30.45,30.24,9,3,13,0.20
2013-1-12,69,56,44,62,45,33,96,72,32,30.27,30.21,3,0,8,0.00
2013-1-13,63,59,56,51,42,32,80,56,31,30.24,30.18,8,0,10,0.00
2013-1-14,59,56,47,55,50,39,91,81,48,30.27,30.18,6,0,8,1.89
2013-1-15,47,43,38,44,40,36,95,92,89,30.27,30.12,6,0,6,1.65
2013-1-16,57,49,38,56,47,36,98,94,87,30.12,30.03,0,0,6,0.31
2013-1-17,49,39,30,46,37,29,98,90,81,30.18,29.97,7,0,16,0.91
2013-1-18,34,29,20,32,22,14,97,76,58,30.47,30.21,0,0,6,0.24
2013-1-19,46,29,18,38,19,12,85,66,41,30.44,30.18,0,0,0,0.51
2013-1-20,46,35,23,21,10,2,69,39,19,30.18,30.12,14,4,15,0.00
2013-1-21,45,32,24,20,4,-7,57,32,20,30.12,29.97,15,5,25,0.00
2013-1-22,26,19,12,-6,-13,-18,25,23,22,30.18,30.00,13,5,19,0.00
2013-1-23,35,23,11,3,-9,-19,33,24,22,30.27,30.03,12,3,15,0.00
2013-1-24,36,25,13,3,-8,-17,25,23,22,30.38,29.94,30,7,34,0.00
2013-1-25,35,20,11,25,-2,-18,69,39,24,30.38,30.03,10,2,15,0.00
2013-1-26,36,30,27,22,8,0,61,39,22,30.21,30.06,11,6,17,0.00
2013-1-27,33,30,27,8,2,-2,44,30,23,30.47,30.41,5,1,9,0.04
2013-1-28,55,38,30,29,12,6,54,37,18,30.41,30.29,6,1,8,0.00
2013-1-29,65,46,32,48,25,14,81,48,15,30.29,30.18,8,0,8,0.00
2013-1-30,59,56,43,57,53,38,93,88,73,30.18,29.62,11,3,25,3.31
2013-1-31,42,31,26,36,4,-5,81,35,23,29.97,29.59,17,8,25,0.00